Regional Weather Roundup
Issued by NWS Charleston, SC

Current Version | Previous Version | Graphics & Text | Print | Product List | Glossary On
Versions: 1 2 3 4 5 6 7 8 9 10 11 12 13 14 15 16 17 18 19 20 21 22 23 24 25 26 27 28 29 30 31 32 33 34 35 36 37 38 39 40 41 42 43 44 45 46 47 48 49 50
000
ASUS42 KCHS 281225
RWRCHS

REGIONAL WEATHER ROUNDUP
NATIONAL WEATHER SERVICE CHARLESTON SC
700 AM EST WED JAN 28 2015

NOTE: "FAIR" INDICATES FEW OR NO CLOUDS BELOW 12,000 FEET WITH NO
SIGNIFICANT WEATHER AND/OR OBSTRUCTIONS TO VISIBILITY.

NOT ALL STATIONS ARE QUALITY CONTROLLED BY THE NATIONAL
WEATHER SERVICE. USE DATA WITH CAUTION...ESPECIALLY
DEWPOINT OBSERVATIONS.

SCZ027-030-031-034>040-042>050-281300-
...SOUTHEAST SOUTH CAROLINA...

CITY           SKY/WX    TMP DP  RH WIND       PRES   REMARKS
N CHARLESTON   CLEAR     28  23  81 N7        30.18R WCI  21
6HR MIN TEMP:  28; 6HR MAX TEMP:  37;

WATERFRONT PRK   N/A     36 N/A N/A NW7         N/A  WCI  30
MOUNT PLEASANT LGT RAIN N/A N/A N/A N7        30.18R
PINOPOLIS      NOT AVBL
MONCKS CORNER  FAIR      36  18  48 N9        30.18R WCI  29
SUMMERVILLE    FAIR      32  28  86 N3        30.20
BEAUFORT MCAS  CLEAR     34  26  72 N7        30.19R WCI  28
6HR MIN TEMP:  34; 6HR MAX TEMP:  41;

BEAUFORT ARPT  FAIR      34  30  86 NW5       30.18R WCI  30
HILTON HEAD IS CLEAR     37  30  75 N9        30.18  WCI  31
WALTERBORO     SUNNY     30 N/A N/A NW3       30.21R
ALLENDALE      FAIR      30  25  80 CALM      30.20R

...SOUTHERN MIDLANDS AND PEE DEE...

CITY           SKY/WX    TMP DP  RH WIND       PRES   REMARKS
GEORGETOWN     NOT AVBL
KINGSTREE      NOT AVBL
ORANGEBURG     CLEAR     29  23  78 N5        30.18R WCI  24
6HR MIN TEMP:  27; 6HR MAX TEMP:  36;

BARNWELL         N/A     28  27  93 CALM      30.20R
AIKEN          FAIR      28  25  86 CALM      30.22R
MANNING        FAIR      32  23  69 N3        30.20R
COLUMBIA       CLEAR     31  20  63 N3        30.19R
6HR MIN TEMP:  31; 6HR MAX TEMP:  37;

SUMTER         CLEAR     29  15  55 N10       30.17R WCI  20
6HR MIN TEMP:  29; 6HR MAX TEMP:  35;

FLORENCE       CLEAR     29  13  51 N8        30.18R WCI  21
6HR MIN TEMP:  29; 6HR MAX TEMP:  37;

MYRTLE BEACH   CLEAR     32  14  47 N13       30.17R WCI  22
N MYRTLE BEACH CLEAR     30  16  56 N8        30.15R WCI  22
6HR MIN TEMP:  30; 6HR MAX TEMP:  36;


$$

GAZ063-065-086>088-099>101-113>116-118-119-134>141-150-281300-
...SOUTHEAST GEORGIA...

CITY           SKY/WX    TMP DP  RH WIND       PRES   REMARKS
SAVANNAH ARPT  CLEAR     32  26  78 N5        30.19R WCI  27
6HR MIN TEMP:  31; 6HR MAX TEMP:  39;

HUNTER AAF     CLEAR     34  28  77 NW7       30.17R WCI  28
6HR MIN TEMP:  33; 6HR MAX TEMP:  39;

FORT STEWART   CLEAR     31  28  89 NW2       30.18R
6HR MIN TEMP:  31; 6HR MAX TEMP:  40;

STATESBORO     CLEAR     29  29 100 CALM      30.21R
SYLVANIA       SUNNY     29  29 100 CALM      30.21R
CLAXTON        FAIR      30  30 100 CALM      30.21R

...CSRA...CENTRAL AND FAR SOUTHEAST GEORGIA...

CITY           SKY/WX    TMP DP  RH WIND       PRES   REMARKS
THOMSON        CLEAR     27  27 100 CALM      30.26R
AUGUSTA-BUSH   CLEAR     23  21  92 CALM      30.21R
6HR MIN TEMP:  23; 6HR MAX TEMP:  32;

AUGUSTA-DANIEL CLEAR     32  26  78 NW5       30.20R WCI  27
SWAINSBORO     FAIR      30  28  93 NW3       30.21R
VIDALIA        CLEAR     32  32 100 N5        30.20R WCI  27
EASTMAN        FAIR      29  29 100 CALM      30.24R FOG
HAZLEHURST     FAIR      33  32  96 N3        30.20R
ALMA           CLEAR     32  29  88 NW3       30.19R
6HR MIN TEMP:  31; 6HR MAX TEMP:  41;

WAYCROSS       CLEAR     36  33  88 N6        30.20R WCI  31
JESUP          FAIR      36  34  93 N3        30.20R
BAXLEY         FAIR      34  32  93 N5        30.19R WCI  30
BRUNSWICK      CLEAR     34  32  93 NW3       30.19R
SAINT SIMONS   CLEAR     36  30  79 N7        30.17R WCI  30
6HR MIN TEMP:  36; 6HR MAX TEMP:  43;


$$

SCZ027-028-034-036>038-045-046-048>050-GAZ119-141-281300-
...LAKE AND SUPPLEMENTAL COASTAL OBSERVATIONS...

STATION/POSITION TIME  TEMP    WIND        PRES    WAVE   SWELL
                       AIR SEA DIR/SP/G            HT/PER HT/PER/DIR
                 (UTC) (F)     (DEG/KT/KT) (MB)    (FT/S) (FT/S/D)
UPR LAKE MARION  NOT AVBL
WINYAH BAY       1100   33     340/  4     1019.0
LAKE MURRAY      1100   30      CALM  /  4 1020.7R
ACE BASIN NERRS  NOT AVBL
FORT PULASKI     1200   36 52  330/  8/ 10 1022.4R
SAPELO ISLAND    1200   37     340/  8     1022.0R

$$

ANZ835-935-AMZ111-154-330-350-352-354-370-450-454-472-281300-
...C-MAN AND BUOY OBSERVATIONS...

STATION/POSITION TIME  TEMP    WIND        PRES    WAVE   SWELL
                       AIR SEA DIR/SP/G            HT/PER HT/PER/DIR
                 (UTC) (F)     (DEG/KT/KT) (MB)    (FT/S) (FT/S/D)
BUOY 41004       1150   44 67  350/ 21/ 27 1019.4R   6/ 6   2/12
BUOY 41008       1150   44 54   10/ 16/ 21 1020.8R   3/ 4
FOLLY BEACH CMAN 1200   35     340/  7/  9 1022.1R
CAPERS NEARSHORE 1100   39     360/ 16/ 19   N/A
FRIPP NEARSHORE  1100   42     360/ 14/ 17   N/A


STATION/POSITION TIME  TEMP    WIND        PRES    WAVE   SWELL
                       AIR SEA DIR/SP/G            HT/PER HT/PER/DIR
                 (UTC) (F)     (DEG/KT/KT) (MB)    (FT/S) (FT/S/D)
5E ST. MARYS GA  1122      58                N/A     4/ 4
FRYING PAN BUOY  1150   39 64  350/ 19/ 23 1019.6R   5/ 5   2/110/13
BUOY 41025       1150   38 69  340/ 21/ 29 1016.8R  10/11  10/ 50/11
CAPE LOOKOUT NC  1200   34     350/ 16/ 20 1018.6R
BUOY 41002       1150   57 71  310/ 19/ 27 1014.4R  12/13   7/ 20/13
BUOY 41010       1120   62 75  310/ 17/ 21 1016.8R
ST AUGUSTINE FL  1200   40     330/  9/ 11 1021.4R


$$



USA.gov is the U.S. government's official web portal to all federal, state and local government web resources and services.